User: anonymous   Login
Location: Fairmont
(43.6520°N, 94.4610°W)
Time: 16:18:37
(UTC-05:00)
Language:

Cosmos-2242 - Orbit

View from above orbital plane
View from above orbital plane
View from above satellite
View from above satellite

Ground track
Ground track

The orbit data is extracted from the following two-line orbital elements,

1 22626U 93024A   15091.43495987  .00002155  00000-0  23870-3 0  9997
2 22626 082.5199 082.9329 0017636 282.1796 077.7445 14.86785622186081
Epoch (UTC): 01 April 2015 10:26:20
Eccentricity: 0.0017636
inclination: 82.5199°
perigee height: 595 km
apogee height: 620 km
right ascension of ascending node: 82.9329°
argument of perigee: 282.1796°
revolutions per day: 14.86785622
mean anomaly at epoch: 77.7445°
orbit number at epoch: 18608

The dashed part of the orbit path shows where the satellite is in the earth's shadow,  

DLR